Probability
10 16 39 39 39 39 39 35 45 45 42 32 35 32 32 32 35 32 32 35 32 39 32 32 32 26 26 19 19 16 16 16 16 23 19 19 10 6 3 6 3 0 0
13 13 42 39 42 39 39 39 42 39 32 32 29 29 26 32 32 26 26 29 29 32 29 32 32 26 23 23 23 19 19 16 19 19 19 19 6 3 3 0 0 0 0
10 16 32 39 39 42 42 42 35 29 26 23 23 19 23 19 23 23 23 23 26 26 29 29 29 23 19 23 23 13 10 13 13 16 10 0 0 3 3 0 0 0 0
6 16 26 39 39 39 39 42 39 32 26 26 26 16 16 16 16 16 19 23 26 26 32 29 26 23 26 26 19 10 13 13 13 10 0 0 0 3 3 0 0 0 0
10 16 23 35 35 39 42 42 39 32 29 26 19 19 19 13 16 16 23 19 19 26 26 29 26 16 23 19 19 13 13 13 10 3 0 0 0 0 3 0 0 0 0
10 10 26 32 32 32 32 35 26 26 26 19 19 19 16 19 19 23 19 23 23 16 23 23 19 19 19 13 16 16 10 10 3 0 0 0 0 3 0 0 0 0 0
10 13 23 32 32 29 29 32 26 26 23 19 19 13 13 16 16 13 16 19 23 19 19 16 16 19 16 19 16 13 10 3 0 0 0 0 0 0 0 0 0 0 0
10 19 23 26 29 29 26 23 26 19 16 13 10 13 13 13 13 13 16 16 19 19 13 13 16 19 16 16 10 10 6 3 0 0 0 0 0 3 3 0 0 0 0
13 16 19 23 23 26 23 23 16 16 16 13 10 10 13 13 13 13 13 10 10 13 13 13 13 16 16 16 13 10 6 3 0 0 0 0 0 3 6 3 0 0 0
13 13 16 13 13 16 16 13 13 13 13 16 13 10 10 6 6 6 6 6 10 10 10 13 13 16 13 10 6 3 6 3 0 0 0 0 0 3 6 6 3 3 3
6 10 13 10 10 10 6 13 6 3 6 6 6 6 6 6 3 3 3 3 3 6 6 10 10 13 13 3 3 3 3 0 0 0 0 0 0 0 6 6 3 3 3
6 10 13 10 6 6 6 0 3 3 6 6 6 6 3 3 3 3 3 3 3 3 6 6 10 6 0 0 0 0 0 0 0 0 0 0 0 3 3 6 6 3 3
6 10 10 6 6 6 0 0 0 3 6 6 6 3 3 3 3 3 3 3 3 3 3 3 3 0 0 0 0 0 0 0 0 0 0 0 0 0 0 3 6 6 6
6 6 6 6 6 0 0 0 0 0 3 6 3 3 3 3 3 3 3 3 3 3 3 3 0 0 0 0 0 0 0 0 0 0 0 0 0 3 3 10 6 6 6
6 6 6 6 6 0 0 0 0 0 0 6 3 3 3 3 3 3 3 3 3 3 3 0 0 0 0 0 0 0 0 0 0 0 0 0 0 3 6 6 10 10 3
3 6 3 6 3 0 0 0 0 0 0 0 0 0 3 3 3 3 3 3 3 3 3 0 0 0 0 0 0 0 0 0 0 0 0 0 0 0 3 3 3 3 0
3 3 3 3 3 0 0 0 0 0 0 0 0 0 3 3 3 0 3 0 0 0 3 3 0 0 0 0 0 0 0 0 0 0 0 0 0 0 0 3 3 3 0
0 3 3 3 3 0 0 0 0 0 0 0 0 0 3 3 0 0 0 0 0 0 0 3 0 0 0 0 0 0 0 0 0 0 0 0 0 0 0 0 0 0 0
0 0 3 3 3 0 0 0 0 0 0 0 0 0 0 0 0 0 0 0 0 0 0 0 0 0 0 0 0 0 0 0 0 0 0 0 0 0 0 0 0 0 0
0 0 3 3 0 0 0 0 0 0 0 0 0 0 0 0 0 0 0 0 0 0 0 0 0 0 0 0 0 0 0 0 0 0 0 0 0 0 0 0 0 0 0
0 0 0 0 0 0 0 0 0 0 0 0 0 0 0 0 0 0 0 0 0 0 0 0 0 0 0 0 0 0 0 0 0 0 0 0 0 0 0 0 0 0 0
0 0 0 0 0 0 0 0 0 0 0 0 0 0 0 0 0 0 0 0 0 0 0 0 0 0 0 0 0 0 0 0 0 0 0 0 0 0 0 0 0 0 0
0 0 0 0 0 0 0 0 0 0 0 0 0 0 0 0 0 0 0 0 0 0 0 0 0 0 0 0 0 0 0 0 0 0 0 0 0 0 0 0 0 0 0
0 0 0 0 0 0 0 0 0 0 0 0 0 0 0 0 0 0 0 0 0 0 0 0 0 0 0 0 0 0 0 0 0 0 0 0 0 0 0 0 0 0 0
0 0 0 0 0 0 0 0 0 0 0 0 0 0 0 0 0 0 0 0 0 0 0 0 0 0 0 0 0 0 0 0 0 0 0 0 0 0 0 0 0 0 0
0 0 0 0 0 0 0 0 0 0 0 0 0 0 0 0 0 0 0 0 0 0 0 0 0 0 0 0 0 0 0 0 0 0 0 0 0 0 0 0 0 0 0
Height
5849 5850 5851 5851 5852 5853 5854 5855 5856 5857 5858 5859 5860 5861 5861 5862 5863 5863 5864 5864 5865 5865 5866 5866 5867 5867 5867 5867 5867 5867 5866 5866 5865 5865 5864 5864 5863 5862 5862 5861 5860 5859 5858
5845 5846 5847 5848 5849 5850 5851 5853 5853 5854 5855 5856 5857 5858 5859 5859 5860 5861 5862 5862 5863 5863 5864 5864 5865 5865 5865 5865 5865 5865 5865 5864 5864 5863 5863 5862 5861 5861 5860 5859 5858 5857 5856
5842 5843 5844 5845 5846 5847 5848 5849 5850 5851 5852 5853 5854 5855 5856 5857 5858 5858 5859 5860 5860 5861 5861 5862 5862 5863 5863 5863 5863 5863 5863 5862 5862 5861 5861 5860 5860 5859 5858 5857 5856 5855 5854
5838 5839 5840 5841 5842 5843 5844 5845 5846 5847 5848 5850 5851 5851 5852 5853 5854 5855 5856 5857 5857 5858 5858 5859 5859 5860 5860 5860 5860 5860 5860 5860 5859 5859 5859 5858 5857 5857 5856 5855 5854 5853 5852
5833 5834 5835 5837 5838 5839 5840 5841 5842 5843 5844 5845 5846 5847 5848 5849 5850 5851 5852 5853 5854 5855 5855 5856 5856 5857 5857 5857 5857 5858 5857 5857 5857 5857 5856 5856 5855 5854 5853 5852 5852 5850 5849
5828 5829 5830 5832 5833 5834 5835 5837 5838 5839 5840 5841 5842 5843 5844 5845 5846 5847 5848 5849 5850 5851 5851 5852 5853 5853 5854 5854 5854 5854 5854 5854 5854 5854 5853 5853 5852 5851 5850 5850 5849 5847 5846
5822 5823 5824 5826 5827 5829 5830 5832 5833 5834 5835 5836 5837 5838 5839 5840 5841 5842 5844 5845 5846 5847 5847 5848 5849 5849 5850 5850 5850 5850 5850 5851 5851 5850 5850 5850 5849 5848 5847 5846 5845 5844 5843
5815 5816 5817 5819 5821 5823 5824 5826 5827 5829 5829 5830 5831 5833 5834 5835 5836 5837 5838 5840 5841 5842 5843 5843 5844 5845 5845 5846 5846 5846 5846 5846 5847 5847 5846 5846 5845 5844 5844 5843 5842 5840 5839
5807 5808 5810 5812 5814 5816 5818 5820 5821 5822 5824 5825 5826 5827 5828 5829 5830 5831 5833 5834 5835 5836 5837 5838 5839 5840 5840 5841 5841 5841 5842 5842 5842 5842 5842 5841 5841 5840 5840 5839 5838 5836 5835
5799 5800 5801 5804 5806 5808 5811 5813 5814 5816 5817 5819 5820 5821 5822 5823 5824 5825 5827 5828 5829 5830 5831 5833 5834 5834 5835 5836 5836 5836 5837 5837 5837 5837 5837 5837 5836 5836 5835 5834 5833 5832 5830
5790 5791 5793 5796 5798 5801 5803 5805 5807 5809 5810 5812 5813 5814 5815 5816 5817 5819 5820 5822 5823 5824 5825 5826 5828 5829 5829 5830 5831 5831 5831 5831 5832 5832 5832 5832 5831 5831 5830 5829 5828 5827 5825
5782 5783 5785 5787 5790 5793 5795 5797 5800 5802 5803 5805 5806 5807 5808 5809 5810 5812 5813 5815 5816 5817 5819 5820 5821 5822 5823 5824 5825 5825 5825 5826 5826 5826 5826 5826 5826 5825 5825 5824 5823 5821 5820
5773 5775 5777 5779 5782 5785 5787 5789 5792 5794 5796 5797 5798 5799 5800 5801 5803 5804 5806 5807 5809 5810 5811 5813 5814 5816 5817 5818 5819 5819 5819 5819 5820 5820 5820 5820 5820 5819 5819 5818 5817 5815 5814
5765 5767 5769 5772 5774 5776 5778 5780 5783 5785 5787 5789 5790 5791 5792 5794 5795 5796 5798 5799 5801 5802 5804 5805 5807 5809 5810 5811 5812 5812 5813 5813 5813 5813 5813 5813 5813 5813 5812 5811 5810 5809 5808
5757 5759 5761 5764 5766 5768 5770 5771 5774 5776 5778 5780 5781 5782 5783 5785 5786 5788 5789 5791 5793 5794 5796 5798 5799 5801 5803 5804 5805 5805 5806 5806 5806 5807 5806 5806 5806 5806 5805 5804 5804 5803 5801
5749 5751 5753 5755 5758 5759 5761 5763 5764 5766 5768 5770 5772 5773 5774 5775 5777 5779 5780 5782 5784 5785 5787 5789 5792 5794 5795 5797 5797 5798 5798 5798 5799 5799 5799 5799 5799 5799 5798 5797 5797 5795 5794
5740 5742 5744 5747 5749 5751 5752 5754 5755 5756 5758 5760 5761 5763 5764 5765 5767 5769 5771 5773 5775 5777 5779 5781 5783 5785 5787 5789 5789 5790 5791 5791 5791 5792 5792 5792 5792 5791 5791 5790 5789 5788 5786
5731 5733 5735 5738 5740 5742 5743 5745 5746 5746 5747 5749 5751 5752 5754 5755 5757 5759 5761 5763 5765 5767 5770 5772 5774 5776 5778 5780 5781 5782 5783 5783 5784 5784 5784 5784 5784 5784 5783 5782 5781 5780 5778
5722 5724 5726 5728 5730 5732 5734 5735 5736 5737 5737 5739 5740 5742 5744 5746 5747 5749 5751 5753 5755 5758 5760 5763 5765 5767 5770 5771 5773 5774 5775 5776 5776 5776 5776 5776 5776 5775 5775 5774 5773 5771 5770
5713 5715 5717 5719 5721 5723 5724 5725 5726 5727 5728 5729 5730 5732 5734 5736 5738 5739 5742 5744 5746 5748 5751 5753 5756 5758 5760 5762 5764 5765 5766 5767 5768 5768 5768 5768 5767 5767 5767 5766 5765 5764 5762
5705 5707 5708 5710 5712 5713 5715 5716 5717 5717 5719 5720 5721 5723 5724 5726 5728 5730 5732 5735 5737 5739 5741 5744 5746 5749 5751 5753 5755 5756 5757 5758 5759 5759 5759 5759 5759 5759 5758 5758 5757 5756 5754
5697 5699 5700 5701 5703 5704 5705 5706 5707 5708 5709 5711 5712 5713 5714 5716 5718 5721 5723 5726 5728 5730 5732 5734 5737 5739 5741 5743 5745 5747 5748 5750 5750 5751 5751 5751 5751 5751 5750 5750 5748 5747 5746
5689 5691 5692 5693 5694 5695 5696 5698 5698 5699 5699 5701 5702 5704 5706 5708 5710 5712 5715 5717 5719 5721 5723 5725 5727 5730 5733 5734 5735 5737 5738 5740 5741 5742 5742 5743 5742 5742 5742 5741 5740 5739 5737
5681 5682 5683 5684 5685 5686 5687 5688 5689 5690 5691 5692 5693 5695 5697 5699 5701 5704 5706 5708 5710 5712 5714 5717 5719 5721 5723 5725 5726 5727 5729 5730 5731 5733 5733 5733 5733 5733 5733 5732 5731 5730 5728
5673 5675 5675 5676 5676 5677 5678 5679 5681 5682 5682 5684 5685 5686 5688 5691 5693 5695 5697 5700 5701 5703 5705 5708 5710 5712 5714 5716 5717 5718 5719 5720 5721 5722 5724 5724 5724 5723 5723 5722 5722 5721 5719
5667 5667 5668 5668 5668 5669 5670 5671 5672 5673 5674 5675 5677 5678 5680 5682 5685 5687 5689 5691 5693 5695 5697 5699 5701 5702 5704 5705 5707 5708 5709 5710 5712 5712 5713 5714 5714 5714 5714 5713 5712 5711 5710
Wind_Speed
16 16 16 16 15 15 14 14 13 13 14 13 12 12 12 12 12 11 10 10 10 10 9 9 9 9 8 9 8 8 9 9 9 8 8 8 9 9 9 10 11 11 12
18 18 17 17 17 17 16 15 15 14 15 15 14 14 14 15 14 13 12 12 12 12 11 11 11 11 10 10 10 10 10 10 10 10 9 10 10 10 10 11 12 12 13
20 20 20 19 19 19 18 17 17 16 16 16 16 16 16 16 16 15 14 14 13 14 13 13 13 12 12 12 11 11 11 11 11 11 11 11 11 11 12 12 13 13 14
22 22 22 22 21 20 20 19 19 18 17 17 18 18 18 18 18 18 17 16 16 16 16 15 15 15 14 14 14 13 13 12 12 12 12 12 13 13 13 13 14 15 15
24 24 24 24 23 22 22 21 21 20 20 19 19 19 19 20 20 19 19 19 19 18 18 18 17 17 17 16 16 15 15 14 14 14 14 14 14 14 15 15 15 16 16
26 26 25 25 25 24 24 23 22 23 22 22 21 21 21 21 22 22 22 21 21 21 21 20 20 19 19 18 18 17 17 16 16 16 16 16 16 16 16 17 17 17 18
27 28 28 27 26 26 26 25 24 24 24 24 23 23 23 23 24 24 24 24 24 23 23 22 21 21 21 20 20 19 19 19 18 18 18 18 18 18 18 18 19 19 19
29 29 30 29 28 28 28 27 26 25 25 25 24 25 25 25 25 25 25 26 26 26 25 24 23 23 23 22 22 22 21 21 20 20 20 20 20 20 20 20 20 20 20
31 31 32 31 30 30 29 29 29 27 27 27 26 25 26 26 26 26 27 27 27 28 27 26 25 25 25 24 23 24 23 23 22 22 22 22 22 22 21 21 21 22 22
32 32 32 32 32 31 30 30 30 29 29 28 28 27 27 28 28 28 28 28 28 28 28 28 27 27 26 26 25 25 25 25 25 25 24 24 24 23 23 23 23 23 24
33 33 33 33 32 32 31 31 31 31 30 30 30 30 29 30 29 29 29 29 29 29 29 28 28 27 27 28 28 27 27 27 27 26 26 26 26 25 25 25 25 25 25
33 33 34 33 33 32 32 32 32 32 32 31 31 31 31 31 31 30 31 31 31 30 30 29 29 29 29 29 29 29 29 29 29 28 28 28 28 27 27 27 27 27 27
33 33 33 34 35 34 33 33 33 33 33 33 33 34 34 33 33 33 33 33 32 32 31 32 32 32 31 30 30 30 30 30 30 30 29 29 29 29 28 28 28 28 28
33 33 33 34 36 35 34 34 34 34 34 35 35 35 36 36 35 35 34 34 33 33 33 32 33 33 32 31 31 31 31 31 31 31 31 30 30 30 30 29 29 29 29
34 34 33 34 35 36 36 35 35 35 36 36 37 37 37 37 37 36 36 35 35 34 34 34 34 34 33 33 32 33 33 32 32 32 32 32 32 32 31 31 30 30 31
34 34 33 33 35 36 37 36 36 36 37 37 37 38 37 37 37 38 37 36 36 36 36 35 35 35 34 34 34 33 34 34 33 33 33 33 33 33 33 32 31 32 32
34 34 34 34 35 36 37 37 37 37 37 38 38 38 38 37 37 37 37 37 37 37 36 36 36 35 35 35 35 34 34 34 34 33 33 33 33 33 33 32 32 32 33
34 34 34 34 35 35 35 37 38 38 38 38 39 38 38 38 37 37 37 36 37 37 37 37 37 37 36 36 35 35 34 34 35 34 34 34 33 33 33 33 33 33 34
34 34 34 35 36 36 36 36 37 38 39 38 38 39 39 38 38 38 37 37 37 38 38 38 37 37 37 38 38 36 36 35 35 35 34 34 34 33 33 34 34 33 34
34 34 35 35 36 36 36 36 37 38 38 38 39 39 39 39 38 38 37 36 37 38 38 38 38 37 37 37 38 37 37 36 36 36 35 35 34 33 33 34 34 34 33
34 34 35 36 37 37 37 37 37 37 38 38 38 38 39 39 38 37 37 36 36 37 38 39 39 38 38 38 38 38 38 37 37 37 36 35 35 34 33 34 34 34 34
34 34 34 35 36 36 37 36 37 38 38 38 38 37 37 37 37 36 36 36 36 36 38 39 39 39 40 39 38 39 39 38 36 36 35 36 36 36 34 34 33 34 34
32 33 34 34 35 36 36 36 35 36 36 37 38 37 37 37 37 36 35 35 35 35 36 39 39 40 39 39 38 38 39 38 37 36 36 35 36 37 36 35 36 36 36
32 33 34 34 35 35 35 35 34 34 35 35 36 37 37 37 37 37 37 37 36 36 37 38 38 40 40 40 40 39 38 38 38 37 37 36 36 37 37 37 36 37 36
31 31 32 32 34 34 35 34 33 33 34 34 36 37 38 39 39 38 38 36 36 36 36 37 37 38 39 40 40 39 39 39 38 38 38 37 38 38 37 37 37 37 37
30 30 31 32 32 32 34 35 34 34 34 34 36 37 38 38 39 39 38 37 36 35 36 37 37 37 38 40 40 40 41 41 40 40 39 39 40 40 40 39 39 38 38
Wind_Direction
251 251 252 253 253 251 251 251 251 251 251 251 250 249 248 247 249 249 250 253 258 262 263 266 269 274 278 284 290 296 300 303 305 306 308 309 310 312 314 316 318 320 322
252 252 251 251 252 252 251 252 252 251 250 250 251 251 249 248 247 249 250 254 257 261 263 264 266 270 276 281 285 288 292 295 298 299 303 306 306 307 309 312 315 317 318
254 252 251 251 252 252 251 251 253 253 253 252 251 251 250 249 249 250 251 253 257 260 261 265 266 269 273 276 280 283 286 288 292 295 298 301 303 303 305 308 311 314 316
254 254 254 253 252 252 251 251 253 253 254 255 253 252 250 250 252 251 252 256 257 260 263 264 268 269 271 274 276 280 282 283 287 290 294 297 299 301 302 304 307 311 312
256 255 254 253 253 251 251 253 254 254 253 254 254 252 251 250 251 253 254 257 260 260 262 264 267 270 271 272 274 276 278 280 282 286 290 293 296 297 299 301 303 305 308
258 255 253 253 253 251 252 253 253 254 254 253 253 253 252 251 252 254 255 257 260 262 262 263 265 268 273 273 273 273 275 276 279 282 286 290 292 294 295 298 299 301 304
259 254 252 252 252 251 251 252 254 255 254 254 253 253 252 253 253 254 256 258 260 264 263 262 265 267 271 274 274 272 273 274 277 280 283 286 288 290 292 295 297 299 301
258 254 251 252 252 252 251 251 252 255 255 256 255 253 253 253 254 255 255 257 260 262 263 263 264 267 269 270 272 271 271 273 275 277 280 282 285 287 289 292 295 297 299
258 255 251 250 250 250 250 251 252 253 255 255 255 255 255 254 255 256 257 257 259 261 262 263 263 265 267 268 270 271 270 271 272 275 278 281 283 286 288 290 293 295 296
257 255 251 249 249 250 250 251 252 252 254 256 256 254 255 255 255 256 257 258 260 260 261 262 262 263 266 267 268 270 270 271 271 273 276 279 281 284 286 288 290 293 295
256 255 251 249 249 250 251 252 252 252 253 256 257 256 255 255 255 256 257 259 260 260 260 260 259 262 265 267 267 269 269 270 271 272 274 277 279 282 284 286 288 291 293
254 254 250 249 249 250 251 252 253 253 253 255 256 256 255 254 255 256 257 258 260 260 258 258 259 262 265 266 267 268 269 270 272 272 273 275 278 280 283 284 287 289 291
252 251 250 249 249 250 250 252 253 253 254 255 256 256 256 255 255 256 256 257 259 260 258 258 260 263 265 265 267 268 268 270 271 272 273 275 277 279 281 283 285 287 289
250 251 249 247 249 251 252 254 253 253 254 255 256 258 258 256 256 257 256 256 258 258 258 259 261 262 264 265 266 267 269 270 270 271 273 275 277 279 280 281 284 285 287
249 250 251 249 250 252 252 255 255 253 254 255 256 257 257 257 256 256 256 257 257 257 257 258 259 260 262 264 265 267 268 270 271 271 272 274 277 278 279 281 283 284 286
248 249 250 251 250 252 253 255 258 256 256 256 257 257 258 258 257 256 257 257 257 255 255 256 258 260 260 262 264 267 268 269 270 271 271 273 276 277 278 280 282 284 286
248 249 249 250 252 254 254 255 258 259 258 257 257 258 259 259 258 257 256 258 257 255 255 255 257 259 260 262 264 266 268 269 270 271 271 273 275 277 278 280 281 283 285
248 249 251 252 253 255 256 257 258 260 259 258 258 258 259 259 258 256 255 257 257 256 256 256 256 258 259 261 264 267 269 269 270 272 271 272 274 276 278 279 281 283 285
250 251 253 252 253 254 256 258 259 260 260 259 257 257 257 259 258 257 257 258 256 255 254 254 254 257 259 261 264 267 269 271 271 272 273 272 273 276 277 279 281 283 285
250 253 255 254 254 256 259 259 260 260 260 259 258 257 258 259 259 258 258 259 258 256 254 254 255 257 258 260 263 265 267 270 271 273 275 273 273 274 277 279 282 284 285
251 253 255 255 256 256 260 262 261 260 259 259 257 256 258 259 258 258 257 259 259 257 256 254 255 257 258 259 261 263 265 268 271 272 274 274 272 273 276 278 281 283 285
252 255 257 258 258 258 260 263 262 260 258 258 256 256 256 256 256 257 257 259 260 258 255 254 257 258 258 260 262 264 264 266 270 270 273 274 273 273 275 278 280 283 286
256 256 258 259 260 258 259 260 260 259 258 256 256 256 256 255 255 254 255 257 258 257 255 256 257 258 259 260 262 265 265 266 269 271 272 275 274 274 275 277 279 283 284
257 258 259 260 260 259 259 257 258 259 258 258 258 257 257 254 253 252 253 257 258 257 255 256 257 258 259 262 264 265 266 267 269 271 272 273 273 274 275 277 279 281 282
261 260 260 261 261 261 258 255 256 258 259 259 257 257 256 254 253 253 253 256 257 256 255 255 257 259 259 261 264 266 266 267 268 271 272 273 272 272 275 277 277 279 280
264 263 263 263 262 262 258 256 258 258 259 258 257 258 256 254 252 252 253 254 256 255 254 256 257 260 261 262 264 266 267 267 267 271 272 273 272 272 273 275 276 277 279